Regional Weather Roundup
Issued by NWS Upton, NY

Current Version | Previous Version | Text Only | Print | Product List | Glossary Off
Versions: 1 2 3 4 5 6 7 8 9 10 11 12 13 14 15 16 17 18 19 20 21 22 23 24 25 26 27
000 ASUS41 KOKX 311304 RWROKX REGIONAL WEATHER ROUNDUP NATIONAL WEATHER SERVICE NEW YORK NY 900 AM EDT WED AUG 31 2016 NOTE: "FAIR" INDICATES FEW OR NO CLOUDS BELOW 12,000 FEET WITH NO SIGNIFICANT WEATHER AND/OR OBSTRUCTIONS TO VISIBILITY. NYZ071-072-176-178-NJZ106-104-311400- NEW YORK CITY METRO AREA CITY SKY/WX TMP DP RH WIND PRES REMARKS Central Park MOSUNNY 76 68 76 VRB6 30.03F LaGuardia APRT PTSUNNY 79 68 69 SW9 29.99F Kennedy INTL PTSUNNY 75 73 93 SW12 30.01F Newark/Liberty PTSUNNY 78 69 73 W6 30.00F Bronx Bot Gard N/A 79 66 65 W14 30.01F Wall St Helipt MOSUNNY 77 72 83 W7 30.01S Teterboro PTSUNNY 78 68 71 W5 29.99F $$ NYZ177-179-078>081-311400- LONG ISLAND NEW YORK CITY SKY/WX TMP DP RH WIND PRES REMARKS Farmingdale PTSUNNY 78 70 76 W8 30.00F MacArthur/ISP PTSUNNY 76 72 87 W6 30.00F Shirley CLOUDY 77 71 82 W6 30.01F Riverhead NOT AVBL Westhampton PTSUNNY 78 70 76 SW8 30.02F Southampton N/A 77 72 83 SW5 29.97S Bridgehampton NOT AVBL East Hampton CLOUDY 76 70 81 SW6 30.00F Montauk N/A 77 70 79 SW7 30.02F $$ NYZ052-065-067-311400- HUDSON VALLEY CITY SKY/WX TMP DP RH WIND PRES REMARKS White Plains PTSUNNY 75 69 81 W6 30.01S Newburgh CLOUDY 68 68 100 W9 30.03S FOG Montgomery CLOUDY 70 68 93 SW9 30.00F FOG Poughkeepsie CLOUDY 71 67 87 SW7 29.99F Albany CLOUDY 67 60 78 S6 29.98S $$ NJZ001-105-106-008-010-013-015-019>022-104-311400- NEW JERSEY CITY SKY/WX TMP DP RH WIND PRES REMARKS Newark/Liberty PTSUNNY 78 69 73 W6 30.00F Teterboro PTSUNNY 78 68 71 W5 29.99F Caldwell MOSUNNY 75 68 78 S5 30.01F Morristown CLOUDY 75 68 78 CALM 30.01F Somerville MOSUNNY 76 68 76 CALM 29.99F Linden FAIR 76 68 75 CALM 30.02S Sussex CLOUDY 72 70 93 VRB5 30.01F FOG Abdover N/A 72 67 84 CALM 30.02F Trenton MOSUNNY 76 69 79 W3 30.01S Millville PTSUNNY 74 74 100 SW3 30.02S FOG Atlantic City SUNNY 79 71 76 SW5 30.01F Wrightstown CLOUDY 72 72 100 W5 29.99S FOG Toms River MOSUNNY 77 72 84 SW6 30.02S Belmar CLOUDY 73 72 96 SW7 30.02S $$ PAZ047>061-062-071-311400- EASTERN PENNSYLVANIA CITY SKY/WX TMP DP RH WIND PRES REMARKS Philadelphia MOSUNNY 76 69 79 S3 30.01S Allentown MOSUNNY 71 63 75 CALM 30.02S Scranton CLOUDY 69 61 75 CALM 30.02F $$ CTZ002-004>006-009-010-012-RIZ004-006-007-MAZ004-011-015-311400- SOUTHERN NEW ENGLAND IN CT CITY SKY/WX TMP DP RH WIND PRES REMARKS Bradley INTL CLOUDY 72 66 81 S8 29.99F Hartford CLOUDY 76 69 79 SW5 29.99S Danbury CLOUDY 71 68 90 SW7 30.02S Wtrbury/Oxford PTSUNNY 72 64 78 CALM 30.03S Bridgeport MOSUNNY 78 71 79 SW6 30.00S Meriden CLOUDY 76 69 79 SW3 30.00F New Haven PTSUNNY 76 71 85 W6 30.00F Chester FAIR 73 72 94 VRB5 30.01F Groton CLOUDY 76 71 85 SW9 29.99F Wilimantic CLOUDY 68 65 90 CALM 30.00F IN RI CITY SKY/WX TMP DP RH WIND PRES REMARKS Providence CLOUDY 74 68 81 SW8 30.00S Block Island CLOUDY 76 70 82 SW12 30.01F Westerly CLOUDY 75 69 81 SW8 30.01S IN MA CITY SKY/WX TMP DP RH WIND PRES REMARKS Boston CLOUDY 73 66 78 SW13 29.96F Worcester CLOUDY 68 64 87 W10 30.00S Westfield MOSUNNY 68 63 84 SW3 29.98F Provincetown PTSUNNY 73 69 87 SW10 29.99S Nantucket MOSUNNY 72 67 84 SW12 30.01S $$ ANZ330-335-338-340-345-350-353-355-311400- COASTAL MARINE OBSERVATIONS STATION/POSITION TIME SKY/WX TEMP WIND PRES VSBY WAVE AIR SEA DIR/SP/G HT/PER (UTC) (F) (DEG/KT/KT) (MB) (MI) (FT/S) NY HARB ENTRANCE 1150 75 77 260/ 6/ 8 1016.1 3/11 20S FIRE ISLAND 1150 77 76 230/ 10/ 12 1016.0 4/12 GREAT SOUTH BAY 1200 76 79 240/ 12/ 14 N/A 23 SSW MONTAUK P 1150 76 77 230/ 12/ 14 1016.5 4/11 15 E BARNEGAT LI 1200 77 N/A 4/11 HUDSON CANYON 1150 79 77 1016.2 3/11 KINGS POINT 1200 76 77 1015.8 EXECUTION ROCKS 1215 76 230/ 8/ 10 N/A CENTRAL LI SOUND NOT AVBL EASTERN LI SOUND 1200 72 70 220/ 6/ 8 N/A ROBBINS REEF 1206 74 230/ 6/ 9 1015.4 $$ >>>>>>>>>>>>>>>>>>>>>>>>>>>> KEY <<<<<<<<<<<<<<<<<<<<<<<<<<< > < > SKY/WX - Sky Condition/Present Weather < > TMP - Temperature in Fahrenheit < > DP - Dew Point in Fahrenheit < > RH - Relative Humidity in Percent < > WIND - Direction (from) and Speed in MPH < > PRES - Mean Sea Level Pressure (inches of Hg) < > WCI - Wind Chill Index < > VSB - VISIBILITY IN MILES < > HX - HEAT INDEX < > TC - TEMPERATURE IN CELSIUS < > VRB - VARIABLE WIND DIRECTION < > < >>>>>>>>>>>>>>>>>>>>>>>>>>>> KEY <<<<<<<<<<<<<<<<<<<<<<<<<<<

USA.gov is the U.S. government's official web portal to all federal, state and local government web resources and services.